When you browse on this site, cookies collect data to enhance your experience and personalize the content and advertising you see.
Visit our Privacy Policy to learn more. By continuing to use the site, you agree to this use of cookies and data.
EN

Hourly Weather Gok

Today, 21 September, Monday

Time Temperature Precipitation Wind Pressure Humidity
00:00 +12°C° 0 mm 3 mps 760 mmHg 51%
01:00 +11°C° 0 mm 3 mps 760 mmHg 55%
02:00 +11°C° 0 mm 3 mps 760 mmHg 58%
03:00 +10°C° 0 mm 3 mps 761 mmHg 61%
04:00 +10°C° 0 mm 3 mps 761 mmHg 63%
05:00 +10°C° 0 mm 3 mps 761 mmHg 64%
06:00 +9°C° 0 mm 3 mps 761 mmHg 65%
07:00 +12°C° 0 mm 4 mps 761 mmHg 56%
08:00 +14°C° 0 mm 4 mps 761 mmHg 47%
09:00 +16°C° 0 mm 5 mps 761 mmHg 36%
10:00 +19°C° 0 mm 5 mps 761 mmHg 33%
11:00 +21°C° 0 mm 4 mps 761 mmHg 29%
12:00 +22°C° 0 mm 4 mps 760 mmHg 25%
13:00 +23°C° 0 mm 4 mps 760 mmHg 23%
14:00 +25°C° 0 mm 4 mps 760 mmHg 21%
15:00 +26°C° 0 mm 3 mps 759 mmHg 19%
16:00 +23°C° 0 mm 4 mps 759 mmHg 21%
17:00 +21°C° 0 mm 4 mps 759 mmHg 23%
18:00 +20°C° 0 mm 4 mps 759 mmHg 25%
19:00 +18°C° 0 mm 4 mps 760 mmHg 26%
20:00 +17°C° 0 mm 3 mps 760 mmHg 27%
21:00 +14°C° 0 mm 3 mps 760 mmHg 29%
22:00 +14°C° 0 mm 3 mps 760 mmHg 31%
23:00 +13°C° 0 mm 3 mps 760 mmHg 33%

Tomorrow, 22 September, Tuesday

Time Temperature Precipitation Wind Pressure Humidity
00:00 +12°C° 0 mm 3 mps 760 mmHg 36%
01:00 +12°C° 0 mm 3 mps 760 mmHg 39%
02:00 +11°C° 0 mm 3 mps 760 mmHg 42%
03:00 +11°C° 0 mm 3 mps 761 mmHg 45%
04:00 +11°C° 0 mm 3 mps 761 mmHg 49%
05:00 +10°C° 0 mm 3 mps 760 mmHg 54%
06:00 +10°C° 0 mm 3 mps 760 mmHg 59%
07:00 +13°C° 0 mm 3 mps 761 mmHg 54%
08:00 +17°C° 0 mm 3 mps 761 mmHg 49%
09:00 +19°C° 0 mm 4 mps 761 mmHg 44%
10:00 +21°C° 0 mm 4 mps 761 mmHg 38%
11:00 +23°C° 0 mm 4 mps 761 mmHg 32%
12:00 +26°C° 0 mm 4 mps 760 mmHg 26%
13:00 +27°C° 0 mm 4 mps 760 mmHg 24%
14:00 +28°C° 0 mm 4 mps 760 mmHg 22%
15:00 +28°C° 0 mm 4 mps 759 mmHg 21%
16:00 +27°C° 0 mm 4 mps 759 mmHg 23%
17:00 +25°C° 0 mm 4 mps 759 mmHg 25%
18:00 +22°C° 0 mm 4 mps 759 mmHg 27%
19:00 +21°C° 0 mm 4 mps 760 mmHg 29%
20:00 +19°C° 0 mm 4 mps 760 mmHg 31%
21:00 +17°C° 0 mm 3 mps 760 mmHg 33%
22:00 +17°C° 0 mm 3 mps 760 mmHg 35%
23:00 +16°C° 0 mm 3 mps 759 mmHg 36%

Day after tomorrow, 23 September, Wednesday

Time Temperature Precipitation Wind Pressure Humidity
00:00 +14°C° 0 mm 3 mps 759 mmHg 38%
01:00 +14°C° 0 mm 3 mps 759 mmHg 41%
02:00 +13°C° 0 mm 3 mps 759 mmHg 45%
03:00 +13°C° 0 mm 3 mps 759 mmHg 48%
04:00 +13°C° 0 mm 3 mps 759 mmHg 58%
05:00 +12°C° 0 mm 3 mps 759 mmHg 68%
06:00 +12°C° 0 mm 3 mps 759 mmHg 78%
07:00 +15°C° 0 mm 4 mps 759 mmHg 71%
08:00 +18°C° 0 mm 4 mps 759 mmHg 64%
09:00 +21°C° 0 mm 5 mps 759 mmHg 58%
10:00 +23°C° 0 mm 5 mps 759 mmHg 49%
11:00 +26°C° 0 mm 5 mps 758 mmHg 40%
12:00 +28°C° 0 mm 6 mps 758 mmHg 32%
13:00 +28°C° 0 mm 6 mps 757 mmHg 30%
14:00 +29°C° 0 mm 6 mps 757 mmHg 28%
15:00 +29°C° 0 mm 5 mps 756 mmHg 27%
16:00 +28°C° 0 mm 5 mps 756 mmHg 29%
17:00 +26°C° 0 mm 4 mps 756 mmHg 31%
18:00 +23°C° 0 mm 4 mps 756 mmHg 34%
19:00 +22°C° 0 mm 4 mps 756 mmHg 37%
20:00 +21°C° 0 mm 4 mps 756 mmHg 39%
21:00 +20°C° 0 mm 4 mps 756 mmHg 42%
22:00 +19°C° 0 mm 4 mps 756 mmHg 44%
23:00 +18°C° 0 mm 4 mps 756 mmHg 46%

24 September, Thursday

Time Temperature Precipitation Wind Pressure Humidity
00:00 +17°C° 0 mm 4 mps 756 mmHg 48%
01:00 +17°C° 0 mm 3 mps 756 mmHg 52%
02:00 +16°C° 0 mm 3 mps 756 mmHg 56%
03:00 +14°C° 0 mm 3 mps 756 mmHg 60%
04:00 +14°C° 0 mm 3 mps 756 mmHg 64%
05:00 +14°C° 0 mm 4 mps 756 mmHg 68%
06:00 +13°C° 0 mm 4 mps 756 mmHg 72%
07:00 +17°C° 0 mm 4 mps 756 mmHg 66%
08:00 +19°C° 0 mm 5 mps 756 mmHg 60%
09:00 +21°C° 0 mm 6 mps 756 mmHg 55%
10:00 +23°C° 0 mm 6 mps 756 mmHg 49%
11:00 +26°C° 0 mm 6 mps 756 mmHg 44%
12:00 +28°C° 0 mm 6 mps 756 mmHg 38%
13:00 +28°C° 0 mm 6 mps 755 mmHg 38%
14:00 +29°C° 0 mm 6 mps 755 mmHg 37%
15:00 +29°C° 0 mm 6 mps 755 mmHg 36%
16:00 +28°C° 0 mm 5 mps 755 mmHg 38%
17:00 +26°C° 0 mm 4 mps 755 mmHg 39%
18:00 +25°C° 0 mm 4 mps 754 mmHg 41%
19:00 +23°C° 0 mm 4 mps 755 mmHg 41%
20:00 +22°C° 0 mm 4 mps 755 mmHg 42%
21:00 +21°C° 0 mm 5 mps 755 mmHg 42%
22:00 +20°C° 0 mm 4 mps 755 mmHg 45%
23:00 +19°C° 0 mm 4 mps 755 mmHg 47%

25 September, Friday

Time Temperature Precipitation Wind Pressure Humidity
00:00 +18°C° 0 mm 4 mps 755 mmHg 50%
01:00 +18°C° 0 mm 4 mps 755 mmHg 55%
02:00 +17°C° 0 mm 4 mps 755 mmHg 60%
03:00 +17°C° 0 mm 4 mps 755 mmHg 65%
04:00 +15°C° 0 mm 4 mps 755 mmHg 67%
05:00 +15°C° 0 mm 4 mps 755 mmHg 69%
06:00 +14°C° 0 mm 4 mps 755 mmHg 70%
07:00 +17°C° 0 mm 4 mps 755 mmHg 66%
08:00 +19°C° 0 mm 4 mps 755 mmHg 62%
09:00 +21°C° 0 mm 5 mps 755 mmHg 58%
10:00 +25°C° 0 mm 5 mps 755 mmHg 51%
11:00 +27°C° 0 mm 5 mps 755 mmHg 44%
12:00 +29°C° 0 mm 5 mps 754 mmHg 37%
13:00 +30°C° 0 mm 5 mps 754 mmHg 34%
14:00 +32°C° 0 mm 5 mps 754 mmHg 32%
15:00 +32°C° 0 mm 4 mps 753 mmHg 29%
16:00 +30°C° 0 mm 4 mps 753 mmHg 32%
17:00 +28°C° 0 mm 3 mps 753 mmHg 34%
18:00 +27°C° 0 mm 3 mps 753 mmHg 37%
19:00 +26°C° 0 mm 3 mps 753 mmHg 37%
20:00 +25°C° 0 mm 3 mps 753 mmHg 37%
21:00 +22°C° 0 mm 4 mps 754 mmHg 37%
22:00 +22°C° 0 mm 4 mps 754 mmHg 38%
23:00 +21°C° 0 mm 4 mps 753 mmHg 38%

26 September, Saturday

Time Temperature Precipitation Wind Pressure Humidity
00:00 +21°C° 0 mm 5 mps 753 mmHg 38%
01:00 +20°C° 0 mm 5 mps 753 mmHg 42%
02:00 +19°C° 0 mm 5 mps 754 mmHg 47%
03:00 +17°C° 0 mm 5 mps 754 mmHg 51%
04:00 +17°C° 0 mm 5 mps 754 mmHg 53%
05:00 +17°C° 0 mm 5 mps 754 mmHg 55%
06:00 +16°C° 0 mm 5 mps 754 mmHg 58%
07:00 +19°C° 0.1 mm 6 mps 755 mmHg 51%
08:00 +20°C° 0.1 mm 6 mps 755 mmHg 44%
09:00 +22°C° 0.1 mm 6 mps 755 mmHg 37%
10:00 +24°C° 0 mm 7 mps 755 mmHg 32%
11:00 +28°C° 0 mm 7 mps 755 mmHg 26%
12:00 +31°C° 0 mm 8 mps 754 mmHg 21%
13:00 +32°C° 0 mm 8 mps 754 mmHg 21%
14:00 +32°C° 0 mm 8 mps 754 mmHg 21%
15:00 +32°C° 0 mm 9 mps 754 mmHg 20%
16:00 +31°C° 0 mm 8 mps 755 mmHg 23%
17:00 +28°C° 0 mm 7 mps 755 mmHg 25%
18:00 +27°C° 0 mm 6 mps 755 mmHg 28%
19:00 +26°C° 0 mm 7 mps 756 mmHg 32%
20:00 +23°C° 0 mm 7 mps 756 mmHg 35%
21:00 +22°C° 0 mm 7 mps 757 mmHg 39%
22:00 +21°C° 0 mm 7 mps 757 mmHg 43%
23:00 +20°C° 0 mm 7 mps 757 mmHg 47%
Show more